Flag for India Weather past 2 weeks in Navi Mumbai, Maharashtra, India

Now
77 °F

Passing clouds.


Feels Like: 79 °F
Forecast: 64 / 86 °F
Wind: No wind

Location: Bombay / Santacruz

Current Time: Jan 25, 2015 at 11:47:27 PM

Latest Report: Jan 25, 2015 at 10:40 PM


Visibility: 2 mi

Pressure: 30.04 "Hg

Humidity: 47%

Dew point: 55 °F

Location of Navi MumbaiLocation

Historic Weather in Navi Mumbai — Graph

°F

Navi Mumbai temperature yesterday

Maximum temperature yesterday: 82 °F (at 11:40 AM)
Minimum temperature yesterday: 72 °F (at 3:40 AM)
Average temperature yesterday: 77 °F

Past Weeks' High & Low Weather Summary

 TemperatureHumidityPressure
High88 °F (Jan 17, 1:40 PM)94% (Jan 20, 4:40 AM)30.09 "Hg (Jan 20, 4:40 AM)
Low66 °F (Jan 15, 7:40 AM)24% (Jan 12, 11:40 AM)29.86 "Hg (Jan 14, 2:40 PM)
Average77 °F54%29.96 "Hg
* Reported Jan 10 9:40 PM — Jan 25 9:40 PM, Navi Mumbai, Weather by CustomWeather, © 2014

Note: Actual official high and low records may vary slightly from our data, if they occured in-between our weather recording intervals... More about our weather records

Advertising

Navi Mumbai weather history for previous 24 hours

 ConditionsComfort  
Time TempWeatherWind HumidityBarometerVisibility
9:40 PM
Jan 25
77 °FPassing clouds.No wind51%30.04 "Hg1 mi
8:40 PM77 °FPassing clouds.3 mph47%30.01 "Hg1 mi
7:40 PM79 °FPassing clouds.6 mph51%29.98 "Hg1 mi
6:40 PM79 °FScattered clouds.8 mph51%29.98 "Hg1 mi
5:40 PM81 °FScattered clouds.8 mph45%29.98 "Hg2 mi
4:40 PM82 °FScattered clouds.13 mph45%29.95 "Hg2 mi
3:40 PM84 °FScattered clouds.13 mph43%29.95 "Hg2 mi
2:40 PM84 °FHaze.12 mph43%29.95 "Hg2 mi
1:40 PM84 °FHaze.9 mph35%29.98 "Hg2 mi
12:40 PM84 °FHaze.9 mph51%30.01 "Hg1 mi
11:40 AM81 °FHaze.10 mph66%30.04 "Hg1 mi
10:40 AM81 °FHaze.No wind62%30.04 "Hg1 mi
9:40 AM77 °FScattered clouds.No wind69%30.04 "Hg1 mi
8:40 AM73 °FScattered clouds.5 mph78%30.01 "Hg1 mi
7:40 AM72 °FPassing clouds.No wind83%29.98 "Hg1 mi
6:40 AM73 °FPassing clouds.5 mph78%29.95 "Hg1 mi
5:40 AM72 °FPassing clouds.No wind83%29.95 "Hg1 mi
4:40 AM73 °FPassing clouds.No wind78%29.95 "Hg1 mi
3:40 AM73 °FHaze.No wind78%29.95 "Hg1 mi
2:40 AM73 °FHaze.No wind83%29.95 "Hg1 mi
1:40 AM75 °FHaze.No wind78%29.95 "Hg1 mi
12:40 AM75 °FPassing clouds.No wind78%29.98 "Hg1 mi
11:40 PM
Jan 24
77 °FPassing clouds.3 mph69%29.98 "Hg1 mi
Weather by CustomWeather, © 2014

See weather overviewHow to use our weather pages